Weather History for Rickenbacker, OH

Change the Weather History Date:

Saturday, February 16, 2013

  Actual Average Record
Temperature  
Mean Temperature 24 °F -  
Max Temperature 30 °F 41 °F 64 °F (2006)
Min Temperature 18 °F 26 °F -2 °F (2007)
Degree Days  
Heating Degree Days 41    
Moisture  
Dew Point 17 °F    
Average Humidity 72    
Maximum Humidity 85    
Minimum Humidity 60    
Precipitation  
Precipitation 0.00 in - - ()
Sea Level Pressure  
Sea Level Pressure 30.05 in    
Wind  
Wind Speed 8 mph (WNW)    
Max Wind Speed 21 mph    
Max Gust Speed 29 mph    
Visibility 9 miles    
Events Snow    
Averages and records for this station are not official NWS values.
T = Trace of Precipitation, MM = Missing Value Source: NWS Daily Summary

Daily Weather History Graph

Daily Weather History Graph

Search for Another Location

Airport:

Trip Planner

Search our weather history database for the weather conditions in past years. The results will help you decide how hot, cold, wet, or windy it might be!

Date:

Astronomy

Feb. 16, 2013 Rise Set
Actual Time 7:22 AM EST 6:09 PM EST
Civil Twilight 6:55 AM EST 6:37 PM EST
Nautical Twilight 6:23 AM EST 7:08 PM EST
Astronomical Twilight 5:52 AM EST 7:39 PM EST
Moon 10:35 AM EST (2/16) 12:07 AM EST (2/16)
Length of Visible Light 11h 41m
Length of Day
10h 46m
Waxing Crescent, 39% of the Moon is Illuminated
Feb 16
Waxing Crescent
Feb 17
First Quarter
Feb 25
Full
Mar 4
Last Quarter
Mar 11
New

Hourly Weather History & Observations

Time (EST) Temp. Windchill Dew Point Humidity Pressure Visibility Wind Dir Wind Speed Gust Speed Precip Events Conditions
12:15 AM 29.5 °F 21.1 °F 22.6 °F 76% 30.11 in 10.0 mi WNW 9.2 mph - N/A   Mostly Cloudy
12:35 AM 29.3 °F 21.5 °F 20.7 °F 70% 30.10 in 10.0 mi WNW 8.1 mph - N/A   Mostly Cloudy
12:55 AM 28.8 °F 21.7 °F 19.8 °F 69% 30.10 in 10.0 mi WNW 6.9 mph - N/A   Mostly Cloudy
1:15 AM 28.6 °F 20.7 °F 19.0 °F 67% 30.10 in 10.0 mi WNW 8.1 mph - N/A   Overcast
1:35 AM 27.9 °F 18.4 °F 18.5 °F 68% 30.10 in 10.0 mi NW 10.4 mph - N/A   Scattered Clouds
1:55 AM 27.1 °F 19.7 °F 18.5 °F 70% 30.10 in 10.0 mi NW 6.9 mph - N/A   Clear
2:15 AM 26.4 °F 18.9 °F 18.5 °F 72% 30.09 in 10.0 mi NW 6.9 mph - N/A   Clear
2:35 AM 25.7 °F 20.1 °F 18.1 °F 73% 30.09 in 10.0 mi NNW 4.6 mph - N/A   Clear
2:55 AM 25.5 °F 19.9 °F 17.6 °F 72% 30.08 in 10.0 mi NNW 4.6 mph - N/A   Clear
3:15 AM 25.0 °F 20.7 °F 16.9 °F 71% 30.08 in 10.0 mi NNW 3.5 mph - N/A   Clear
3:35 AM 24.8 °F 19.1 °F 17.1 °F 72% 30.08 in 10.0 mi NW 4.6 mph - N/A   Clear
3:55 AM 24.6 °F 18.8 °F 17.2 °F 74% 30.07 in 10.0 mi NW 4.6 mph - N/A   Clear
4:15 AM 23.5 °F 16.4 °F 17.1 °F 76% 30.07 in 10.0 mi WNW 5.8 mph - N/A   Clear
4:35 AM 23.0 °F 15.8 °F 16.5 °F 76% 30.06 in 10.0 mi WNW 5.8 mph - N/A   Clear
4:55 AM 22.6 °F - 16.3 °F 77% 30.06 in 10.0 mi Calm Calm - N/A   Clear
5:15 AM 22.8 °F 18.2 °F 16.5 °F 77% 30.06 in 10.0 mi NW 3.5 mph - N/A   Clear
5:35 AM 22.8 °F - 16.3 °F 76% 30.06 in 10.0 mi Calm Calm - N/A   Clear
5:55 AM 22.5 °F - 16.2 °F 77% 30.06 in 10.0 mi Calm Calm - N/A   Clear
6:15 AM 22.5 °F - 16.5 °F 78% 30.06 in 10.0 mi Calm Calm - N/A   Clear
6:35 AM 21.7 °F - 16.5 °F 80% 30.06 in 10.0 mi Calm Calm - N/A   Clear
6:55 AM 21.0 °F - 16.5 °F 83% 30.06 in 10.0 mi Calm Calm - N/A   Clear
7:15 AM 21.0 °F - 16.5 °F 83% 30.05 in 10.0 mi Calm Calm - N/A   Clear
7:35 AM 20.5 °F - 16.2 °F 83% 30.06 in 10.0 mi Calm Calm - N/A   Clear
7:55 AM 18.9 °F 12.1 °F 14.7 °F 84% 30.06 in 10.0 mi SSE 4.6 mph - N/A   Clear
8:15 AM 19.0 °F 12.3 °F 15.3 °F 85% 30.06 in 10.0 mi SSE 4.6 mph - N/A   Clear
8:35 AM 21.6 °F 16.8 °F 17.4 °F 84% 30.06 in 10.0 mi SSW 3.5 mph - N/A   Clear
8:55 AM 24.3 °F - 18.3 °F 78% 30.06 in 10.0 mi Calm Calm - N/A   Clear
9:15 AM 25.3 °F - 18.3 °F 75% 30.06 in 10.0 mi Calm Calm - N/A   Clear
9:35 AM 26.1 °F - 18.5 °F 73% 30.06 in 10.0 mi Calm Calm - N/A   Mostly Cloudy
9:55 AM 27.0 °F 23.0 °F 18.7 °F 71% 30.05 in 10.0 mi SSW 3.5 mph - N/A   Overcast
10:15 AM 27.5 °F 23.6 °F 18.1 °F 68% 30.05 in 10.0 mi South 3.5 mph - N/A   Overcast
10:35 AM 28.2 °F - 18.1 °F 66% 30.05 in 10.0 mi Calm Calm - N/A   Overcast
1:15 PM 29.7 °F 22.8 °F 21.4 °F 71% 30.00 in 5.0 mi SW 6.9 mph - N/A Snow Light Snow
1:35 PM 28.9 °F 21.9 °F 22.1 °F 76% 30.00 in 5.0 mi WSW 6.9 mph - N/A Snow Light Snow
1:55 PM 29.8 °F 20.9 °F 22.5 °F 74% 29.99 in 5.0 mi WSW 10.4 mph - N/A Snow Light Snow
2:15 PM 29.5 °F 21.1 °F 22.6 °F 76% 29.99 in 1.2 mi WSW 9.2 mph - N/A Snow Light Snow
2:35 PM 29.8 °F 21.5 °F 23.0 °F 76% 29.99 in 7.0 mi WSW 9.2 mph - N/A   Overcast
2:55 PM 29.5 °F 18.0 °F 22.3 °F 75% 29.99 in 3.0 mi West 16.1 mph 20.7 mph N/A Snow Light Snow
3:15 PM 29.5 °F 17.6 °F 22.1 °F 74% 29.99 in 5.0 mi West 17.3 mph - N/A Snow Light Snow
3:35 PM 29.8 °F 18.9 °F 22.3 °F 73% 29.98 in 10.0 mi West 15.0 mph - N/A   Overcast
3:55 PM 30.7 °F 18.8 °F 19.8 °F 64% 29.99 in 10.0 mi West 18.4 mph 23.0 mph N/A   Overcast
4:15 PM 29.7 °F 19.1 °F 18.5 °F 63% 29.99 in 10.0 mi WNW 13.8 mph 18.4 mph N/A   Mostly Cloudy
4:35 PM 29.1 °F 17.5 °F 18.9 °F 66% 30.00 in 10.0 mi WNW 16.1 mph - N/A   Overcast
4:55 PM 28.0 °F 17.5 °F 20.1 °F 72% 30.00 in 7.0 mi WNW 12.7 mph 24.2 mph N/A   Overcast
5:15 PM 27.3 °F 14.4 °F 19.6 °F 73% 30.01 in 10.0 mi WNW 18.4 mph - N/A   Overcast
5:35 PM 27.3 °F 15.6 °F 16.9 °F 65% 30.01 in 10.0 mi West 15.0 mph 25.3 mph N/A   Overcast
5:55 PM 26.8 °F 14.1 °F 15.3 °F 62% 30.02 in 10.0 mi West 17.3 mph 20.7 mph N/A   Overcast
6:15 PM 26.2 °F 13.8 °F 14.2 °F 60% 30.03 in 10.0 mi West 16.1 mph 20.7 mph N/A   Overcast
6:35 PM 25.2 °F 12.9 °F 13.8 °F 62% 30.03 in 10.0 mi WNW 15.0 mph 19.6 mph N/A   Overcast
6:55 PM 24.4 °F 12.4 °F 14.2 °F 65% 30.04 in 10.0 mi WNW 13.8 mph 19.6 mph N/A   Scattered Clouds
7:15 PM 23.7 °F 11.0 °F 14.5 °F 68% 30.04 in 10.0 mi WNW 15.0 mph - N/A   Scattered Clouds
7:35 PM 23.2 °F 13.3 °F 14.5 °F 70% 30.04 in 10.0 mi WNW 9.2 mph 16.1 mph N/A   Mostly Cloudy
7:55 PM 22.8 °F 11.5 °F 14.0 °F 69% 30.04 in 10.0 mi WNW 11.5 mph 16.1 mph N/A   Scattered Clouds
8:15 PM 22.5 °F 10.5 °F 14.0 °F 70% 30.05 in 10.0 mi WNW 12.7 mph - N/A   Scattered Clouds
8:35 PM 22.3 °F 10.8 °F 13.5 °F 69% 30.05 in 10.0 mi WNW 11.5 mph - N/A   Clear
8:55 PM 21.9 °F 11.0 °F 12.9 °F 68% 30.05 in 10.0 mi WNW 10.4 mph - N/A   Scattered Clouds
9:15 PM 21.7 °F 9.6 °F 12.6 °F 68% 30.05 in 10.0 mi NW 12.7 mph 16.1 mph N/A   Mostly Cloudy
9:35 PM 22.1 °F 9.5 °F 13.6 °F 70% 30.06 in 5.0 mi WNW 13.8 mph 20.7 mph N/A Snow Light Snow
9:55 PM 21.9 °F 9.8 °F 14.9 °F 74% 30.06 in 5.0 mi WNW 12.7 mph 18.4 mph N/A Snow Light Snow
10:15 PM 21.9 °F 9.8 °F 14.7 °F 74% 30.06 in 3.0 mi NW 12.7 mph 20.7 mph N/A Snow Light Snow
10:35 PM 21.7 °F 6.3 °F 14.5 °F 74% 30.07 in 7.0 mi WNW 20.7 mph 28.8 mph N/A   Overcast
10:55 PM 21.0 °F 7.6 °F 13.3 °F 72% 30.07 in 4.0 mi WNW 15.0 mph 19.6 mph N/A Snow Light Snow
11:15 PM 20.8 °F 7.3 °F 11.3 °F 67% 30.07 in 10.0 mi NW 15.0 mph - N/A   Overcast
11:35 PM 20.5 °F 8.6 °F 8.4 °F 60% 30.06 in 10.0 mi WNW 11.5 mph 20.7 mph N/A   Overcast
11:55 PM 19.8 °F 6.5 °F 7.9 °F 60% 30.06 in 10.0 mi WNW 13.8 mph - N/A   Mostly Cloudy